Wind_Speed
29 29 28 28 29 27 27 27 26 26 23 22 19 17 15 13 12 11 5 5 12 14 14 16 17 18 21 27 25 24 25 28 30 30 29 26 25 27 25 25 24 23 23 23 22 22 22 21 20
31 30 30 31 30 28 26 28 27 27 27 22 22 20 16 15 13 10 7 11 14 15 23 20 18 18 20 26 25 23 24 28 31 31 31 30 28 27 25 24 24 23 25 25 24 24 24 24 23
33 32 33 32 31 30 21 30 31 30 27 26 24 22 19 14 17 12 10 11 14 20 21 20 23 22 20 26 26 24 25 28 31 32 32 32 31 31 29 27 27 25 23 24 25 26 26 27 27
34 35 35 33 30 30 34 33 33 32 30 28 26 25 21 21 19 18 15 13 16 20 24 24 25 23 21 28 27 24 24 32 34 34 32 33 33 34 34 29 27 26 25 25 25 26 26 27 29
36 36 37 34 32 33 35 36 36 35 33 30 28 26 25 24 22 22 20 16 16 21 23 22 24 23 25 28 28 24 29 34 35 33 32 32 34 33 32 32 29 27 25 26 25 26 26 26 28
39 37 39 35 33 33 38 38 38 37 35 32 30 29 28 27 27 27 23 21 21 24 23 24 27 23 24 27 27 24 30 35 32 33 36 36 35 33 31 31 31 29 29 27 25 26 25 26 28
40 41 40 39 38 36 37 42 39 37 37 34 34 30 32 33 31 30 26 26 28 25 26 27 24 25 25 23 23 26 31 33 32 32 35 39 37 34 31 30 32 28 28 29 27 26 26 28 29
42 44 44 42 40 37 42 43 40 42 40 43 35 33 35 36 33 31 29 28 29 28 26 22 23 24 26 25 27 30 30 32 32 32 33 36 36 33 30 30 32 30 30 31 30 30 29 29 28
43 48 48 43 40 39 40 44 45 48 47 42 42 42 40 35 36 35 32 32 33 26 24 25 28 31 32 33 31 30 30 33 32 34 36 39 37 32 31 30 33 34 33 32 32 32 30 30 26
52 51 51 42 46 41 41 47 49 50 49 48 47 44 41 40 40 37 37 36 34 33 32 37 34 32 33 36 35 32 33 34 33 35 39 38 38 33 32 31 32 35 36 36 35 34 34 32 29
58 61 47 46 48 49 45 50 51 51 53 53 47 48 48 43 41 40 40 39 36 36 37 36 35 36 35 36 37 35 37 37 35 36 37 37 37 33 33 33 35 37 38 37 35 35 36 35 32
63 58 60 56 54 50 49 47 53 58 58 54 59 54 50 45 44 43 43 42 37 36 35 38 39 44 39 39 38 40 42 41 39 38 37 36 35 33 34 34 33 35 40 39 35 39 32 36 34
58 57 65 61 61 54 50 54 53 57 57 59 60 59 53 50 48 46 46 41 40 39 37 40 43 43 43 42 41 42 44 43 43 40 39 35 33 37 37 35 33 36 40 39 34 37 38 40 39
51 56 62 68 67 62 59 54 58 58 55 58 63 60 56 54 49 48 47 41 40 39 39 40 44 46 47 44 43 44 45 44 43 43 40 35 37 39 35 33 35 36 39 36 35 34 37 37 24
53 58 58 61 65 66 68 67 69 56 60 62 60 58 58 55 52 50 47 42 42 39 40 44 46 47 46 46 45 45 47 45 45 40 39 38 39 40 36 36 38 38 39 37 38 34 36 38 34
58 60 61 57 59 58 70 74 64 63 61 66 61 59 61 58 55 52 47 48 45 43 45 49 48 49 50 49 48 48 50 46 46 42 38 39 40 39 38 41 39 35 39 37 37 35 37 38 42
60 62 62 58 57 62 69 64 60 64 72 72 67 66 65 63 59 58 52 50 46 47 50 51 49 49 52 53 52 52 51 47 44 42 39 40 41 40 43 44 37 37 41 36 35 36 38 39 40
62 64 62 65 60 66 68 62 57 64 77 70 66 64 67 64 63 59 58 48 49 53 53 52 53 52 53 55 55 52 49 45 42 41 43 42 42 45 42 41 38 41 38 34 36 35 38 37 39
69 70 70 68 66 71 69 63 57 59 62 68 72 68 66 65 64 64 59 55 55 53 54 55 53 52 53 54 56 52 46 41 40 41 42 42 45 43 41 40 38 33 31 32 34 36 38 38 36
71 75 74 74 73 70 70 69 62 59 61 61 63 62 66 68 65 63 59 60 53 54 56 56 53 51 53 53 55 49 44 41 41 41 41 43 43 42 39 34 29 29 30 32 34 38 37 34 33
74 77 72 77 79 73 73 72 68 62 60 59 60 58 56 59 58 59 61 60 55 53 54 53 51 48 49 51 48 44 43 41 40 41 41 43 39 34 29 27 27 29 30 33 36 35 34 34 31
65 70 74 77 79 80 74 75 71 64 62 58 54 54 53 49 46 48 52 54 51 50 50 46 47 48 46 43 42 43 40 37 40 40 38 35 31 29 27 27 27 30 32 35 35 33 34 32 30
44 54 63 64 77 80 78 79 70 67 63 57 51 46 43 43 44 45 44 45 47 47 44 43 44 42 39 38 38 36 35 38 37 35 33 29 29 29 28 28 29 32 33 32 32 34 30 28 25
28 33 39 40 46 59 78 64 71 65 58 52 46 42 37 40 41 40 42 43 43 43 41 41 37 33 32 31 31 33 36 34 35 32 29 29 30 29 28 29 30 30 29 30 32 29 27 24 21
19 23 26 38 48 57 70 52 69 63 52 49 45 41 38 38 38 39 38 39 38 39 38 35 31 28 26 28 31 34 33 33 30 28 29 29 29 27 28 28 26 27 28 30 27 25 24 22 22
25 20 26 30 36 44 50 45 66 57 43 50 46 40 39 36 34 36 37 36 33 29 30 30 28 25 26 28 30 30 31 29 27 27 28 28 28 28 26 26 26 28 29 25 24 22 22 23 23
24 29 23 28 27 33 38 42 59 58 53 38 32 42 40 38 41 38 34 30 26 27 25 24 23 25 25 27 29 29 27 26 26 26 26 27 28 26 25 26 29 28 23 23 22 20 19 20 22
22 27 27 26 31 21 30 34 56 53 48 43 33 34 41 43 43 31 27 26 28 27 25 23 24 25 26 27 24 25 25 23 24 25 25 25 24 25 26 27 23 21 21 20 18 17 19 19 20
19 21 19 19 25 15 21 31 38 48 47 42 38 33 32 26 33 34 29 27 30 23 22 23 25 24 22 21 22 22 22 22 23 24 23 24 24 25 24 21 19 19 20 17 15 16 18 19 19
10 19 25 22 23 25 20 18 37 54 46 49 39 32 25 19 23 33 32 28 25 22 23 24 21 19 20 20 21 21 20 21 21 23 24 25 25 23 19 17 18 20 16 12 15 17 18 19 20
Wind_Direction
221 224 223 223 224 227 226 234 237 239 235 234 230 222 216 240 226 216 242 322 331 303 311 312 318 316 331 329 325 325 331 341 343 339 338 332 327 325 327 327 325 322 317 314 312 310 313 312 312
222 227 226 224 225 225 228 233 236 237 238 237 233 232 237 242 253 259 286 329 353 328 332 319 312 302 313 323 320 313 318 337 338 334 334 333 334 331 329 329 324 321 317 317 316 317 318 318 319
222 224 227 223 222 223 209 225 229 235 237 237 238 240 252 252 258 264 298 316 325 323 324 320 326 308 301 313 312 305 307 326 330 330 330 332 334 330 329 331 328 323 317 318 321 318 319 322 322
225 224 226 225 220 222 224 229 230 232 236 238 239 245 252 256 263 268 273 308 321 321 314 317 329 311 297 302 305 309 310 320 322 325 327 327 330 327 326 327 323 317 316 313 319 321 322 320 321
228 225 225 222 214 219 223 230 236 236 235 240 243 245 249 257 257 266 279 295 309 314 313 306 318 309 291 300 301 306 309 319 320 323 326 323 325 321 320 319 318 316 316 313 314 315 318 317 314
230 227 228 222 217 213 225 227 231 235 238 240 241 246 253 260 264 272 277 290 303 307 305 299 305 303 298 291 289 301 308 313 317 322 322 320 323 321 321 316 316 316 314 311 312 313 315 314 308
234 230 227 226 217 213 221 224 226 232 236 237 236 241 250 257 264 267 276 290 301 304 299 296 295 289 300 293 291 297 301 308 311 320 321 319 320 325 321 313 308 307 306 308 310 309 310 311 312
235 232 227 224 221 218 217 224 220 229 234 240 239 243 252 256 262 265 271 285 297 300 302 300 302 292 296 298 290 293 296 303 306 313 312 313 317 319 312 305 301 303 305 308 311 310 309 309 310
236 232 227 222 225 222 224 222 225 231 235 235 236 240 250 254 259 264 268 277 286 292 295 307 310 303 296 298 293 294 299 303 312 315 319 321 318 313 306 304 301 301 302 305 306 305 305 306 306
236 234 227 229 231 230 229 225 228 229 232 237 239 247 248 252 258 261 267 275 281 287 288 303 305 303 295 298 298 297 303 306 317 318 317 316 312 308 303 301 296 298 304 307 309 304 298 301 303
242 239 236 231 233 233 231 228 234 234 236 236 239 245 245 247 252 259 265 270 275 279 288 295 300 302 298 296 294 297 301 304 312 313 315 313 306 301 297 294 295 297 301 305 306 299 294 300 302
245 239 238 237 238 233 233 229 228 233 237 238 241 249 246 247 250 254 259 267 270 281 284 291 296 299 297 294 294 299 300 301 310 312 314 307 299 297 290 293 295 297 298 300 299 295 289 293 294
247 244 243 242 245 236 235 234 228 233 237 241 244 242 242 248 251 253 259 264 271 276 283 290 293 296 295 293 295 296 295 299 306 309 309 304 296 299 291 288 293 294 297 298 295 294 297 297 298
248 248 247 244 246 244 239 229 236 227 232 240 242 242 246 248 249 253 257 263 271 277 286 286 290 290 289 289 290 289 291 296 301 304 306 303 297 301 293 286 283 296 295 300 295 297 308 311 307
248 248 247 245 248 246 244 230 229 226 232 232 237 243 247 249 248 251 255 261 265 274 280 279 281 283 283 283 285 285 286 292 299 305 303 301 300 296 290 284 286 291 294 297 294 301 304 310 304
250 247 248 245 249 249 245 241 232 229 230 232 234 238 244 246 248 249 252 259 262 271 276 274 281 283 283 282 281 282 285 294 298 302 297 299 295 293 289 288 286 291 294 296 293 296 305 306 309
250 250 249 246 248 246 246 246 239 233 232 235 231 233 239 243 243 248 252 253 265 270 274 274 276 280 279 280 281 281 286 293 296 296 296 293 292 289 287 286 286 287 289 292 290 297 300 304 305
253 252 249 247 244 247 249 243 242 240 235 236 237 237 238 241 243 247 248 253 267 269 269 271 271 272 273 276 278 279 284 293 291 290 289 292 290 293 290 284 286 284 289 288 285 289 295 299 299
249 249 248 245 244 245 248 245 240 242 241 241 242 242 241 242 243 247 250 253 264 263 268 268 266 266 270 272 273 276 285 288 286 285 291 292 292 289 283 283 286 287 286 287 296 295 297 297 293
246 245 246 246 245 245 246 244 240 240 239 241 242 243 241 242 245 245 248 253 258 264 265 263 263 267 270 268 267 276 282 282 281 286 292 290 288 282 282 292 283 283 287 289 292 294 297 293 296
246 243 239 241 241 240 242 243 242 239 241 240 241 244 247 248 247 247 250 253 253 255 258 258 261 263 265 266 270 275 279 279 284 286 286 285 282 283 284 280 284 285 289 288 291 292 293 293 294
248 240 235 232 234 239 239 242 241 238 239 240 240 242 245 249 251 251 247 243 246 250 253 256 259 264 269 274 272 273 275 280 282 282 283 277 278 280 280 287 286 288 287 287 290 294 293 293 292
259 243 234 234 231 231 233 237 235 237 236 240 242 244 244 245 246 247 241 242 246 249 254 259 261 267 271 269 270 273 274 276 280 279 272 274 276 277 284 290 291 288 287 290 290 290 289 286 290
253 243 234 232 223 228 227 233 231 236 236 239 242 239 237 236 239 241 239 241 244 250 254 256 264 266 261 263 267 268 270 274 274 268 272 275 276 279 288 290 287 286 287 285 285 284 284 287 294
254 243 238 233 231 231 223 229 227 230 231 233 233 233 229 230 229 234 236 240 244 248 255 261 255 249 253 257 261 265 269 270 265 268 272 274 276 281 286 287 286 286 285 285 285 284 283 287 291
246 244 233 233 237 240 231 225 223 224 232 231 229 227 227 226 227 228 232 238 243 248 248 247 243 249 254 259 262 264 263 260 261 268 271 273 277 281 281 281 282 285 288 285 283 278 282 287 288
245 224 233 231 240 225 231 234 215 218 218 222 227 227 224 223 228 229 234 237 236 236 233 237 243 248 254 255 255 255 251 253 261 269 271 273 278 278 278 281 285 286 282 283 279 283 286 290 289
230 211 227 217 229 232 219 219 208 216 218 212 225 223 220 220 227 229 222 222 225 226 235 234 240 246 249 252 248 244 249 258 267 270 272 275 275 278 281 286 283 279 282 282 284 284 289 292 294
224 216 220 214 206 214 216 212 212 207 219 200 197 197 201 207 221 223 222 220 219 221 224 231 237 242 245 241 241 247 252 260 264 267 269 270 274 278 285 280 280 282 285 284 283 282 285 291 295
282 217 224 212 197 199 186 182 218 207 205 198 206 186 193 201 207 205 212 216 212 211 218 227 230 234 237 239 243 250 257 257 261 263 266 270 274 279 281 278 278 283 279 278 278 283 288 286 276
Height
5872 5874 5875 5877 5882 5882 5884 5887 5887 5889 5891 5892 5894 5896 5898 5899 5900 5903 5900 5900 5900 5900 5899 5897 5896 5893 5891 5889 5888 5886 5884 5881 5880 5878 5877 5876 5874 5873 5870 5867 5865 5863 5861 5860 5858 5858 5857 5856 5854
5866 5870 5871 5872 5877 5879 5882 5882 5884 5886 5886 5888 5889 5892 5894 5895 5896 5896 5897 5896 5896 5896 5896 5895 5895 5893 5890 5888 5886 5886 5884 5880 5879 5876 5874 5872 5870 5868 5867 5866 5863 5861 5858 5856 5854 5853 5852 5851 5850
5862 5863 5867 5868 5872 5875 5880 5878 5879 5881 5883 5885 5886 5888 5890 5892 5891 5891 5892 5893 5893 5893 5893 5892 5893 5892 5890 5888 5887 5884 5881 5879 5877 5873 5870 5869 5867 5866 5864 5861 5859 5857 5856 5854 5851 5849 5847 5845 5845
5856 5859 5862 5864 5869 5873 5871 5871 5873 5876 5879 5881 5883 5884 5887 5887 5886 5887 5889 5891 5892 5891 5890 5890 5892 5891 5889 5886 5885 5882 5879 5877 5874 5870 5868 5866 5863 5862 5861 5859 5858 5856 5853 5851 5848 5846 5843 5841 5839
5851 5853 5855 5860 5864 5867 5866 5867 5869 5871 5873 5876 5879 5881 5882 5882 5882 5883 5886 5887 5888 5888 5887 5888 5888 5888 5886 5883 5882 5880 5876 5873 5869 5866 5865 5864 5862 5860 5858 5856 5854 5852 5849 5847 5845 5843 5840 5838 5836
5845 5846 5851 5856 5860 5861 5860 5862 5864 5866 5869 5871 5874 5877 5878 5878 5878 5879 5880 5882 5884 5885 5884 5885 5884 5883 5881 5880 5879 5878 5876 5871 5867 5864 5862 5860 5858 5856 5855 5853 5850 5848 5845 5843 5841 5839 5836 5834 5832
5838 5840 5845 5850 5853 5854 5856 5855 5858 5862 5864 5868 5869 5872 5873 5872 5874 5873 5876 5879 5880 5880 5880 5880 5880 5879 5878 5877 5877 5875 5873 5868 5865 5862 5858 5856 5854 5852 5850 5848 5846 5844 5841 5838 5837 5834 5832 5829 5828
5831 5833 5837 5841 5846 5852 5848 5850 5854 5855 5859 5858 5865 5867 5868 5867 5868 5870 5872 5874 5875 5875 5875 5876 5876 5874 5872 5872 5872 5872 5870 5867 5862 5860 5857 5854 5851 5849 5847 5844 5841 5838 5835 5833 5831 5829 5827 5825 5823
5822 5823 5829 5836 5841 5846 5846 5847 5847 5847 5850 5855 5856 5857 5859 5863 5863 5865 5868 5869 5870 5870 5870 5870 5870 5868 5867 5866 5865 5866 5864 5862 5858 5854 5851 5848 5846 5844 5842 5839 5835 5832 5831 5829 5827 5825 5823 5821 5819
5812 5815 5823 5833 5830 5835 5837 5840 5840 5842 5845 5848 5849 5851 5855 5858 5858 5861 5862 5864 5865 5864 5864 5864 5864 5862 5861 5860 5859 5858 5856 5855 5853 5849 5846 5844 5840 5839 5837 5834 5830 5828 5825 5825 5823 5821 5819 5816 5814
5804 5806 5820 5823 5820 5821 5827 5832 5833 5836 5837 5841 5844 5844 5847 5851 5854 5855 5856 5858 5859 5859 5860 5858 5857 5857 5856 5855 5853 5852 5851 5850 5849 5845 5842 5839 5836 5834 5832 5829 5826 5824 5821 5820 5818 5815 5813 5812 5809
5789 5800 5805 5813 5807 5812 5817 5822 5824 5824 5829 5834 5832 5837 5840 5843 5847 5849 5850 5851 5852 5854 5853 5852 5851 5850 5849 5847 5846 5845 5844 5841 5841 5839 5838 5834 5831 5829 5827 5824 5822 5819 5817 5814 5811 5808 5805 5804 5802
5780 5789 5790 5794 5794 5801 5805 5811 5815 5817 5823 5824 5825 5826 5831 5836 5840 5843 5844 5845 5847 5847 5846 5846 5845 5844 5842 5841 5840 5839 5838 5837 5834 5834 5832 5828 5826 5823 5821 5819 5816 5814 5811 5807 5805 5802 5800 5797 5794
5772 5771 5775 5779 5781 5788 5793 5801 5799 5810 5815 5816 5814 5819 5824 5827 5833 5835 5837 5840 5840 5839 5840 5840 5838 5837 5835 5834 5834 5833 5832 5831 5829 5828 5825 5823 5820 5818 5815 5813 5811 5809 5804 5801 5799 5797 5795 5791 5787
5755 5755 5759 5764 5771 5776 5777 5780 5787 5806 5807 5804 5809 5813 5816 5821 5825 5827 5830 5831 5832 5833 5834 5834 5832 5831 5830 5829 5827 5826 5825 5825 5822 5821 5818 5817 5816 5812 5810 5807 5805 5802 5798 5796 5792 5791 5789 5785 5782
5741 5741 5744 5761 5757 5764 5755 5763 5785 5794 5796 5795 5802 5806 5808 5812 5815 5818 5822 5823 5824 5826 5826 5825 5824 5824 5824 5822 5819 5819 5818 5818 5817 5814 5812 5811 5809 5806 5803 5800 5798 5796 5792 5790 5787 5785 5782 5780 5776
5727 5731 5735 5745 5748 5744 5736 5755 5773 5782 5779 5778 5789 5795 5798 5803 5807 5808 5813 5815 5817 5820 5820 5818 5817 5816 5816 5814 5812 5812 5811 5812 5810 5807 5806 5804 5802 5799 5796 5793 5792 5789 5786 5784 5781 5779 5777 5773 5769
5716 5716 5720 5722 5732 5724 5725 5743 5758 5761 5762 5769 5776 5784 5787 5792 5796 5800 5804 5807 5810 5810 5810 5809 5809 5808 5806 5805 5804 5805 5805 5805 5803 5801 5799 5798 5795 5792 5789 5786 5785 5782 5780 5777 5774 5772 5770 5767 5764
5694 5696 5701 5709 5711 5709 5716 5729 5741 5743 5748 5758 5763 5770 5775 5779 5786 5788 5794 5799 5801 5800 5800 5799 5798 5798 5797 5797 5796 5797 5799 5797 5796 5794 5792 5790 5788 5785 5782 5779 5778 5776 5773 5771 5769 5766 5764 5760 5757
5674 5678 5684 5689 5692 5699 5705 5711 5723 5728 5735 5743 5749 5754 5761 5768 5775 5779 5784 5787 5791 5790 5787 5789 5788 5788 5789 5788 5788 5791 5791 5790 5789 5787 5785 5782 5780 5777 5775 5774 5771 5769 5767 5765 5763 5760 5757 5753 5750
5651 5656 5665 5670 5672 5683 5687 5693 5705 5716 5722 5731 5736 5743 5749 5756 5763 5769 5773 5776 5778 5777 5777 5777 5779 5779 5779 5779 5782 5783 5783 5782 5781 5779 5777 5775 5772 5772 5770 5767 5765 5763 5761 5759 5756 5753 5750 5746 5744
5627 5636 5641 5646 5651 5664 5674 5677 5688 5703 5708 5716 5727 5731 5739 5745 5751 5755 5758 5762 5764 5766 5765 5769 5771 5771 5772 5773 5774 5774 5775 5775 5774 5772 5770 5767 5767 5766 5763 5761 5759 5757 5755 5752 5749 5746 5744 5739 5737
5611 5616 5620 5628 5633 5643 5655 5657 5680 5688 5698 5708 5718 5724 5730 5735 5739 5742 5747 5751 5752 5754 5757 5762 5763 5763 5764 5765 5766 5767 5767 5767 5766 5765 5762 5762 5761 5759 5756 5755 5753 5750 5747 5745 5742 5740 5738 5735 5733
5602 5604 5608 5615 5619 5620 5641 5644 5666 5677 5692 5701 5707 5714 5719 5722 5728 5733 5736 5739 5744 5747 5750 5753 5754 5755 5757 5758 5758 5759 5759 5759 5759 5758 5756 5755 5754 5752 5751 5748 5745 5743 5741 5739 5737 5735 5733 5730 5727
5594 5598 5601 5605 5604 5605 5628 5631 5653 5665 5680 5687 5693 5700 5708 5713 5718 5723 5728 5732 5737 5740 5742 5744 5746 5747 5748 5750 5751 5752 5752 5752 5752 5750 5750 5748 5747 5746 5744 5741 5739 5737 5736 5734 5731 5729 5727 5724 5722
5589 5592 5595 5599 5604 5610 5616 5619 5647 5662 5670 5675 5683 5690 5698 5704 5710 5715 5720 5724 5728 5731 5733 5736 5738 5740 5741 5743 5744 5744 5745 5746 5745 5744 5743 5742 5741 5739 5738 5736 5733 5732 5730 5728 5726 5724 5722 5720 5718
5584 5583 5590 5592 5596 5599 5612 5617 5638 5651 5660 5668 5673 5681 5687 5695 5698 5707 5712 5716 5720 5723 5726 5728 5731 5733 5734 5735 5737 5737 5739 5739 5739 5738 5737 5736 5734 5733 5731 5729 5728 5726 5724 5723 5721 5719 5718 5715 5712
5575 5581 5581 5584 5589 5596 5606 5614 5630 5640 5651 5661 5666 5672 5679 5685 5690 5699 5704 5709 5712 5716 5720 5723 5725 5726 5728 5729 5730 5731 5733 5733 5733 5732 5731 5730 5729 5727 5725 5724 5722 5721 5720 5718 5716 5715 5713 5711 5708
5575 5574 5576 5581 5588 5595 5605 5612 5618 5627 5639 5651 5657 5662 5670 5678 5684 5692 5697 5702 5706 5710 5714 5717 5719 5721 5722 5723 5725 5727 5727 5727 5727 5726 5725 5725 5724 5722 5720 5719 5718 5717 5715 5714 5712 5711 5709 5706 5703
5569 5569 5572 5578 5583 5586 5591 5604 5606 5618 5632 5644 5650 5657 5666 5673 5679 5685 5691 5695 5700 5705 5708 5711 5713 5715 5717 5719 5721 5721 5722 5722 5721 5721 5720 5719 5718 5717 5715 5715 5714 5714 5712 5711 5709 5707 5704 5701 5698